Find Starlink 6139

NORAD ID: 57109 Int'l Des: 2023-090 Owner: SPXS Country: US Constellation: starlink operational
LEOCIRCULAR

当前视图

正在加载3D地球...

About Starlink 6139

Starlink 6139 (NORAD 57109) is a starlink constellation satellite (v1.5) launched Jun 23, 2023 by SPXS of US. It operates in LEO, CIRCULAR orbit with a mass of 305.00 kg.

关于 Starlink 6139

正在加载描述...

即将过境

Passes for default location (London). Set your location on the main map for personalized predictions.

高度历史

Loading altitude history...

两行轨道根数

1 57109U 23090J 26171.38767113 -.00002028 00000-0 -64158-4 0 9991
2 57109 43.0029 62.0002 0001314 269.4310 90.6391 15.27592884166031
Epoch: Jun 20, 2026 • Age: 44 hours

当前状态

高度 483.5 km
速度 7.63 km/s
星下点 -6.09°S, 56.66°E
发射日期 Jun 23, 2023
运行时间 2.9 years
类型 internet

技术详情

分类 Payload
质量 305.00 kg
干质量 290.00 kg
总质量 305.00 kg
长度 0.20 m
直径 2.80 m
跨度 9.00 m
形状 Box + pan
制造商 SPXS
平台类型 Starlink
阶段状态 In Orbit
所有者/国家 SPXS/US

Most Searched